Location: Bli��� Lhota
(48.7570°N, 14.0120°E)
Time: 05:18:50
(UTC+00:00)

H-2A R/B - Pass Details

Date: 18 September 2020
Orbit: 734 x 836 km, 98.2° (Epoch: 22 October)

Event Time Altitude Azimuth Distance (km) Brightness Sun altitude
Rises 19:14:13 0° 202° (SSW) 3,161 5.1 -20.5°
Reaches altitude 10° 19:16:56 10° 217° (SW) 2,253 4.5 -20.9°
Maximum altitude 19:20:48 23° 269° (W) 1,585 4.3 -21.5°
Drops below altitude 10° 19:24:44 10° 320° (NW) 2,305 5.5 -22.0°
Sets 19:27:34 0° 336° (NNW) 3,255 6.1 -22.4°
